Regional Weather Roundup
Issued by NWS Wilmington, NC

Home | Current Version | Previous Version | Text Only | Print | Product List | Glossary On
Versions: 1 2 3 4 5 6 7 8 9 10 11 12 13 14 15 16 17 18 19 20 21 22 23 24 25 26 27 28 29 30 31 32 33 34 35 36 37 38 39 40 41 42 43 44 45 46 47 48 49 50
000
ASUS42 KILM 182010
RWRILM
RWRILM
REGIONAL HOURLY WEATHER ROUNDUP
NATIONAL WEATHER SERVICE WILMINGTON NC
300 PM EST THU DEC 18 2014

NOTE: "FAIR" INDICATES FEW OR NO CLOUDS BELOW 12,000 FEET WITH NO
SIGNIFICANT WEATHER AND/OR OBSTRUCTIONS TO VISIBILITY.

...............WFO WILMINGTON COUNTY WARNING AREA...............

......COASTAL NC AND SC COUNTIES......

CITY           SKY/WX    TMP DP  RH WIND       PRES   REMARKS
WILMINGTON     SUNNY     57  28  33 CALM      30.09S
SOUTHPORT      MOSUNNY   53  37  53 E5        30.09R
N MYRTLE BEACH MOSUNNY   53  35  50 S6        30.08F
MYRTLE BEACH   SUNNY     55  32  41 SE8       30.10F

......INLAND NC AND SC COUNTIES.......

CITY           SKY/WX    TMP DP  RH WIND       PRES   REMARKS
LUMBERTON      SUNNY     55  27  34 E3        30.07F
ELIZABETHTOWN  SUNNY     56  28  35 CALM      30.08F
WHITEVILLE     SUNNY     56  27  33 CALM      30.08F
FLORENCE       SUNNY     58  27  30 E3        30.09S
DARLINGTON     SUNNY     57  27  30 CALM      30.10S

....................REST OF NORTH CAROLINA......................

.........EASTERN NC.........

CITY           SKY/WX    TMP DP  RH WIND       PRES   REMARKS
CAPE HATTERAS  SUNNY     47  33  58 VRB5      30.10S
JACKSONVILLE   MOSUNNY   52  27  37 CALM      30.10S
MOREHEAD CITY  SUNNY     52  29  41 NE5       30.10S
KENANSVILLE    CLOUDY    51  27  38 CALM      30.10F
NEW BERN       SUNNY     54  27  35 CALM      30.11S
ELIZABETH CITY SUNNY     51  27  39 W7        30.09F

.........CENTRAL NC.........

CITY           SKY/WX    TMP DP  RH WIND       PRES   REMARKS
RALEIGH DURHAM PTSUNNY   50  21  32 NW5       30.09F
ROCKY MOUNT    CLOUDY    50  25  37 CALM      30.09F
ROANOKE RAPIDS NOT AVBL
FAYETTEVILLE   MOSUNNY   54  27  35 CALM      30.08F
HOFFMAN        SUNNY     54  26  34 W2        30.10R

.........WESTERN NC.........

CITY           SKY/WX    TMP DP  RH WIND       PRES   REMARKS
CHARLOTTE      PTSUNNY   55  21  26 CALM      30.08F
GREENSBORO     PTSUNNY   46  19  34 VRB6      30.07F
HICKORY        NOT AVBL
BOONE          NOT AVBL
ASHEVILLE      NOT AVBL

.....................REST OF SOUTH CAROLINA.....................

.........EASTERN SC.........

CITY           SKY/WX    TMP DP  RH WIND       PRES   REMARKS
CHARLESTON     MOSUNNY   62  41  46 S5        30.07F
BEAUFORT MCAS  MOSUNNY   62  42  47 E3        30.07F
HILTON HEAD    SUNNY     55  46  71 CALM      30.09F

.........CENTRAL SC.........

CITY           SKY/WX    TMP DP  RH WIND       PRES   REMARKS
COLUMBIA       MOSUNNY   60  33  36 VRB3      30.07F
ORANGEBURG     MOSUNNY   60  38  43 CALM      30.07F
SUMTER SHAW    MOSUNNY   58  31  35 NE3       30.06F

.........WESTERN SC.........

CITY           SKY/WX    TMP DP  RH WIND       PRES   REMARKS
GREENVILLE     NOT AVBL
ROCK HILL      SUNNY     56  26  31 CALM      30.07F
ANDERSON       PTSUNNY   57  30  35 W8        30.08S
CLEMSON        NOT AVBL
GREENWOOD      MOSUNNY   57  33  40 VRB3      30.08F


...................COASTAL AND OFFSHORE REPORTS..................

................LOCAL PIERS AND NC RESERVE................


STATION/POSITION TIME  SKY/WX   TEMP    WIND        PRES    VSBY
                                AIR SEA DIR/SP/G
                 (UTC)          (F)     (DEG/KT/KT) (MB)    (MI)
JOHNY MRCER PIER 2000            50 58  100/  6/  8 1018.2F
NC RESRV MASNBRO 1900            53      70/  3     1019.0F
OCEAN CREST PIER 1900            53 55  100/ 10/ 11 1018.1F
SPRINGMAID  PIER 2000            52 53  110/  5/  5 1018.9F


................COASTAL AND OFFSHORE BUOYS................


STATION/POSITION TIME  SKY/WX   TEMP    WIND        PRES    VSBY
                                AIR SEA DIR/SP/G
                 (UTC)          (F)     (DEG/KT/KT) (MB)    (MI)
DIMNDSHOAL 41025 2000            48                 1019.4F
WVE H/P(F/S)=  3/ 6

CAPE LOOKOUT     1900            49     360/  7/  9 1018.9F
ONSLOW BAY 41036 1900            51 60   40/  8/ 10 1019.4F
5 WRITEBCH 41038 1900            51 55   90/  8/ 12 1019.2F
MASONBORO  41110 2000               55                N/A
WVE H/P(F/S)=  2/ 4 WND WVE H/P(F/S)=  2/ 4

WILM HARBR 41108 2000               55                N/A
WVE H/P(F/S)=  2/ 5 WND WVE H/P(F/S)=  2/ 5

27WRITEBCH 41037 1900            50 63   50/ 10/ 12 1020.1F
FRYING PAN 41013 2000            55 65   30/ 10/ 12 1019.4F
WVE H/P(F/S)=  3/ 5 WND WVE H/P(F/S)=  2/ 4 SWL H/P/D(F/S/D)=  2/ 20/ 5

SUNST NRSH 41024 1900            55     150/  4/  6   N/A
CAPRS NRSH 41029 1900            55      90/ 12/ 14   N/A
EDISTO     41004 2000            62 73  360/  2/  4 1017.9F
WVE H/P(F/S)=  1/11 SWL H/P/D(F/S/D)=  2/11



..........OFFSHORE BUOYS BEYOND 100 NM OFFSHORE...........
.....IN A TRIANGLE---HAT TO BERMUDA TO BAHAMAS TO HAT.....


STATION/POSITION TIME  SKY/WX   TEMP    WIND        PRES    VSBY
                                AIR SEA DIR/SP/G
                 (UTC)          (F)     (DEG/KT/KT) (MB)    (MI)
150E HAT   41001 NOT AVBL
W BERMUDA  41048 1903            71 73  270/ 14/ 16 1015.7F
WVE H/P(F/S)=  5/ 7 WND WVE H/P(F/S)=  3/ 6 SWL H/P/D(F/S/D)=  3/300/ 7

ATLANTIC S 41049 1932            75 78  290/  6/  8 1017.9R
WVE H/P(F/S)=  4/11 SWL H/P/D(F/S/D)=  5/ 50/11

E BAHAMAS  41046 1907            76 80   10/  4/  6 1017.6S
WVE H/P(F/S)=  3/ 9 SWL H/P/D(F/S/D)=  3/ 50/ 9

NE BAHAMAS 41047 1926            74 78  300/ 10/ 12 1018.0F
WVE H/P(F/S)=  4/ 8 WND WVE H/P(F/S)=  2/ 4 SWL H/P/D(F/S/D)=  5/310/ 8

120E CANVRL41010 2000            71 76  310/  8/ 10 1018.5F
WVE H/P(F/S)=  2/ 9 WND WVE H/P(F/S)=  2/ 4 SWL H/P/D(F/S/D)=  2/120/ 9


END


USA.gov is the U.S. government's official web portal to all federal, state and local government web resources and services.